Regional Weather Roundup
Issued by NWS Charleston, SC

Current Version | Previous Version | Graphics & Text | Print | Product List | Glossary On
Versions: 1 2 3 4 5 6 7 8 9 10 11 12 13 14 15 16 17 18 19 20 21 22 23 24 25 26 27 28 29 30 31 32 33 34 35 36 37 38 39 40 41 42 43 44 45 46 47 48 49 50
313 ASUS42 KCHS 200839 RWRCHS REGIONAL WEATHER ROUNDUP NATIONAL WEATHER SERVICE CHARLESTON SC 400 AM EDT WED SEP 20 2017 NOTE: "FAIR" INDICATES FEW OR NO CLOUDS BELOW 12,000 FEET WITH NO SIGNIFICANT WEATHER AND/OR OBSTRUCTIONS TO VISIBILITY. NOT ALL STATIONS ARE QUALITY CONTROLLED. USE DATA WITH CAUTION... ESPECIALLY DEWPOINT OBSERVATIONS. SCZ027-030-031-034>040-042>050-200900- ...SOUTHEAST SOUTH CAROLINA... CITY SKY/WX TMP DP RH WIND PRES REMARKS N CHARLESTON PTCLDY 72 72 100 CALM 29.98R FOG WATERFRONT PRK N/A 76 74 93 CALM 29.82S JOHNS ISLAND FAIR 73 73 100 CALM 29.98S PINOPOLIS N/A 75 73 94 SW5 29.90F MONCKS CORNER FAIR 68 68 100 CALM 29.98S FOG SUMMERVILLE FAIR 70 68 94 CALM 29.99S BEAUFORT MCAS PTCLDY 74 73 97 SW5 29.98S BEAUFORT ARPT PTSUNNY 73 72 94 CALM 29.98S HILTON HEAD IS PTCLDY 75 75 100 CALM 29.99S WALTERBORO CLOUDY 70 68 94 CALM 29.99S ALLENDALE NOT AVBL ...SOUTHERN MIDLANDS AND PEE DEE... CITY SKY/WX TMP DP RH WIND PRES REMARKS GEORGETOWN FAIR 66 66 100 CALM 29.99R FOG KINGSTREE FAIR 63 63 100 CALM 29.98R ORANGEBURG PTCLDY 68 67 96 CALM 29.99R FOG BARNWELL FAIR 70 68 94 CALM 29.99R AIKEN FAIR 66 64 94 CALM 30.02S MANNING FAIR 66 63 88 CALM 29.99R COLUMBIA PTCLDY 69 65 86 CALM 29.97S SUMTER PTCLDY 69 66 88 CALM 29.96S FLORENCE CLEAR 67 66 97 CALM 29.97S MYRTLE BEACH CLEAR 70 67 90 W5 29.98S N MYRTLE BEACH CLEAR 71 67 87 W3 29.96S $$ GAZ063-065-086>088-099>101-113>116-118-119-134>141-150-200900- ...SOUTHEAST GEORGIA... CITY SKY/WX TMP DP RH WIND PRES REMARKS SAVANNAH ARPT PTCLDY 75 72 90 SW5 29.98S HUNTER AAF PTCLDY 75 72 90 CALM 29.96S FORT STEWART CLOUDY 73 69 88 CALM 29.96S STATESBORO CLEAR 72 71 98 CALM 29.98S SYLVANIA CLOUDY 71 71 100 CALM 29.99S CLAXTON FAIR 72 70 93 CALM 29.97F ...CSRA...CENTRAL AND FAR SOUTHEAST GEORGIA... CITY SKY/WX TMP DP RH WIND PRES REMARKS THOMSON PTCLDY 68 66 95 CALM 30.03S AUGUSTA-BUSH N/A 69 67 93 CALM 29.97R VSB 1/4 AUGUSTA-DANIEL PTCLDY 74 69 85 CALM 29.99R SWAINSBORO FAIR 72 72 100 CALM 29.99R VIDALIA MOCLDY 72 70 94 CALM 29.98R EASTMAN FAIR 71 71 100 CALM 29.99S HAZLEHURST FAIR 75 66 72 S3 29.97R ALMA CLOUDY 75 69 81 S3 29.97S WAYCROSS CLOUDY 73 70 90 SW5 29.98R JESUP NOT AVBL BAXLEY FAIR 72 72 100 S3 29.97S BRUNSWICK MOCLDY 73 68 83 SW3 29.99R SAINT SIMONS CLEAR 77 73 87 SW5 29.98R $$ SCZ027-028-034-036>038-045-046-048>050-GAZ119-141-200900- ...LAKE AND SUPPLEMENTAL COASTAL OBSERVATIONS... STATION/POSITION TIME TEMP WIND PRES WAVE SWELL AIR SEA DIR/SP/G HT/PER HT/PER/DIR (UTC) (F) (DEG/KT/KT) (MB) (FT/S) (FT/S/D) WINYAH BAY 0730 72 290/ 4 1015.0S LAKE MURRAY 0820 75 CALM / 1 1014.2 ACE BASIN NERRS 0745 73 CALM 1015.0S FORT PULASKI 0800 76 79 240/ 2/ 3 1015.5 SAPELO ISLAND 0800 76 CALM 1015.0 $$ ANZ835-935-AMZ111-154-330-350-352-354-370-450-454-472-200900- ...C-MAN AND BUOY OBSERVATIONS... STATION/POSITION TIME TEMP WIND PRES WAVE SWELL AIR SEA DIR/SP/G HT/PER HT/PER/DIR (UTC) (F) (DEG/KT/KT) (MB) (FT/S) (FT/S/D) BUOY 41004 0810 80 82 250/ 8/ 12 1014.7 BUOY 41008 0750 80 80 180/ 10/ 12 1014.9S 3/11 3/ 50/11 FOLLY BEACH CMAN 0800 76 250/ 3/ 4 1015.6F CAPERS NEARSHORE 0808 76 80 260/ 8/ 12 1014.8S FRIPP NEARSHORE 0808 79 220/ 8/ 12 1022.6S STATION/POSITION TIME TEMP WIND PRES WAVE SWELL AIR SEA DIR/SP/G HT/PER HT/PER/DIR (UTC) (F) (DEG/KT/KT) (MB) (FT/S) (FT/S/D) 5E ST. MARYS GA 0800 82 N/A 3/13 2/ 90/13 FRYING PAN BUOY 0810 80 82 270/ 12/ 14 1014.4 BUOY 41025 0750 75 74 290/ 10/ 14 1011.9F 6/11 7/ 50/11 CAPE LOOKOUT NC 0800 76 270/ 7/ 8 1013.4R BUOY 41002 0750 79 79 280/ 6/ 8 1014.4F 8/11 8/ 30/11 BUOY 41010 0810 84 140/ 2/ 4 1014.5 ST AUGUSTINE FL 0800 75 82 250/ 6/ 6 1015.3S $$

USA.gov is the U.S. government's official web portal to all federal, state and local government web resources and services.